sat.trackr.live / text

‹ back to catalog

STARLINK-34099

NORAD 63959 · 2025-099H

PAYLOAD ACTIVE UNKNOWN

§ Identity

Operator
Country
US
Launch date
2025-05-13
Launch site
AFETR
Launch vehicle
Mass (kg)
RCS (m²)

Purposes: comms

External: N2YO · Heavens-Above · Gunter

§ Orbital elements

Epoch: 2026-09-20T02:08:33.490464Z

Period
94.27 min
Inclination
43.0017°
Eccentricity
0.0001280
Mean motion
15.27599893 rev/d
Perigee alt
482.1 km
Apogee alt
483.9 km
Semi-major
6,861.1 km
B*
3.9665e-4
RAAN
158.6652°
Arg perigee
266.1748°
Mean anomaly
93.8957°
Rev number
7,706

§ Raw data

STARLINK-340991 63959U 25099H   26263.08927651  .00010675  00000+0  39665-3 0  99942 63959  43.0017 158.6652 0001280 266.1748  93.8957 15.27599893 77066

JSON: /api/v1/satellites/63959 · /tle

For live sub-satellite position, see the globe view (requires WebGL).

§ Visibility from observer

Set your observer location to see the next 7 days of passes ≥ 10°. The values pass through the URL so the page stays shareable.

No JS? Fill the form by hand. The geolocation button needs JavaScript.